Temperature
12 12 12 13 12 13 13 13 14 15 16 15 14 13 12 13 13 13 13 13 14 14 14 14 15 15 15 15 15 15 15 15 15 15 15 15 16 16
12 12 12 12 12 12 12 12 13 13 14 15 13 13 12 12 12 12 13 13 14 14 14 14 14 14 14 14 15 15 15 15 15 15 15 15 15 15
12 12 12 12 12 12 12 12 12 12 13 13 13 13 11 12 12 12 12 12 13 13 13 14 14 14 14 14 14 14 14 15 15 15 15 15 15 15
13 12 12 12 12 12 12 12 12 12 12 12 12 12 12 11 11 12 12 12 12 12 13 13 13 13 14 14 14 14 14 14 14 14 14 15 15 15
14 13 13 12 12 12 12 12 12 12 11 12 12 12 12 11 11 11 11 11 12 12 12 13 13 13 13 13 13 14 14 14 14 14 14 14 14 15
14 14 14 13 13 13 12 12 12 12 12 11 12 12 12 12 11 11 12 12 11 12 12 12 12 13 13 13 13 13 13 13 14 14 14 14 14 14
15 15 14 14 14 13 13 12 12 11 12 12 12 12 12 12 12 12 12 12 12 11 11 12 12 12 12 12 12 13 13 13 13 13 13 14 14 14
15 15 14 14 14 14 14 13 13 12 12 12 12 12 12 12 11 11 11 12 12 12 11 11 12 12 12 12 12 12 12 12 13 13 13 13 13 14
14 14 14 14 14 14 14 14 14 13 12 12 12 12 12 11 11 11 11 11 11 11 11 11 11 11 11 12 12 11 12 12 12 12 13 13 13 13
14 14 14 14 13 13 13 13 13 13 13 12 12 12 11 11 10 10 10 10 10 10 10 10 11 11 11 11 11 11 12 12 12 12 12 13 13 13
13 13 13 13 13 13 13 12 12 12 12 12 12 12 12 11 10 10 10 10 10 11 11 10 11 11 11 11 11 11 11 12 12 12 12 12 13 13
12 12 13 13 13 13 12 12 12 12 11 11 11 11 11 11 11 10 10 10 11 11 11 11 11 11 11 11 11 11 11 11 11 12 12 12 12 12
11 12 12 12 12 12 12 11 11 11 11 11 11 10 10 10 10 10 10 10 10 11 11 11 10 10 11 11 11 11 11 11 11 11 11 11 12 12
10 10 11 11 11 11 11 11 11 11 10 10 10 11 11 11 10 10 10 10 10 10 10 10 10 10 10 10 11 11 11 11 10 10 11 11 11 11
9 9 9 9 10 10 10 10 10 10 9 10 10 11 11 11 11 10 10 9 9 9 9 9 9 9 9 10 10 10 11 11 10 10 10 11 11 11
8 8 8 9 9 9 9 9 9 9 9 9 10 10 11 11 10 10 10 10 9 9 9 9 9 9 9 9 9 10 10 10 10 10 10 10 10 10
7 7 7 8 8 9 9 9 9 9 9 9 9 10 10 10 10 10 10 10 10 10 10 9 9 8 8 8 9 9 9 10 10 10 10 10 10 10
6 6 7 7 8 8 8 9 9 9 9 9 9 9 9 10 10 9 9 9 9 10 10 10 10 9 8 8 8 8 9 9 10 10 9 10 10 11
6 6 6 7 7 7 8 8 8 8 9 8 9 9 9 9 9 9 9 9 9 9 9 10 10 9 9 9 9 9 9 9 10 10 10 10 10 11
6 6 6 6 6 7 7 7 8 8 8 8 8 8 8 9 9 9 9 9 9 9 9 9 9 9 9 9 10 10 10 9 9 10 10 10 10 10
5 5 5 6 6 6 6 6 7 7 7 7 8 8 8 8 8 8 8 8 8 8 8 9 9 9 9 8 9 9 9 9 9 9 9 10 10 10
4 4 4 5 5 5 5 6 6 6 7 7 7 7 7 8 8 8 8 8 8 8 8 9 9 8 8 8 8 9 9 9 9 9 9 9 9 10
3 3 4 4 4 5 5 5 5 5 6 6 7 7 7 7 7 7 8 8 8 8 8 8 8 8 8 8 8 8 9 9 9 9 9 9 9 9
Wind_Speed
6 6 6 4 5 5 5 6 7 8 6 3 5 3 4 5 4 7 7 3 6 8 7 8 9 10 11 13 14 15 17 18 20 22 23 25 27 29
6 6 6 7 5 6 6 6 7 8 8 6 4 6 5 8 6 8 10 8 12 10 8 9 10 11 11 12 13 14 16 17 18 19 21 23 25 27
9 9 9 9 7 7 7 7 8 8 9 9 8 7 7 10 9 10 11 11 12 12 9 9 11 12 12 13 14 15 16 17 18 19 20 21 22 24
11 10 11 9 10 10 8 9 9 9 10 11 10 9 9 9 10 10 12 12 12 9 9 11 13 14 14 14 15 16 16 17 18 19 20 21 22 23
12 12 12 11 11 10 10 10 9 10 10 11 11 9 9 9 10 11 12 10 13 14 13 16 16 15 14 15 15 16 17 18 19 20 20 21 22 22
13 13 13 13 13 13 11 12 11 11 11 12 12 11 10 10 9 10 11 10 10 12 11 12 13 15 16 16 16 17 17 17 18 19 20 21 22 22
14 14 15 14 14 12 12 12 12 12 12 12 12 11 11 9 9 10 10 10 10 10 10 11 11 13 14 19 21 19 17 16 17 18 20 21 21 22
15 15 15 15 16 17 17 16 15 15 15 13 13 13 12 11 10 10 11 11 11 9 9 11 10 11 11 14 12 13 14 15 17 18 19 20 21 22
15 15 14 15 16 16 18 21 21 21 19 18 17 16 15 12 12 13 13 13 13 10 9 12 11 12 12 14 11 11 14 17 19 20 20 21 21 21
17 17 17 17 16 16 16 17 18 19 20 20 19 19 17 14 13 14 14 14 14 13 13 14 13 13 12 13 14 17 19 20 20 21 21 21 21 21
18 18 18 18 17 16 17 18 19 18 18 20 20 18 16 13 12 12 13 14 14 13 12 14 13 13 13 13 14 18 20 21 21 21 20 20 20 18
14 16 17 19 18 16 18 18 20 20 18 17 18 19 20 20 19 18 17 16 15 14 12 12 13 12 13 12 12 11 14 18 21 21 20 20 18 14
14 14 14 14 17 17 18 18 19 18 16 17 16 17 17 16 18 19 18 17 17 16 12 10 12 12 12 12 11 11 11 11 12 15 20 22 21 16
14 14 14 11 12 16 16 18 19 17 16 16 17 17 17 16 16 17 18 19 18 18 15 13 13 13 14 14 14 12 12 11 12 12 12 14 20 23
14 16 17 17 15 15 18 20 18 16 16 17 18 18 17 16 14 13 16 17 19 20 20 19 17 15 15 16 16 14 13 12 12 13 13 13 12 12
13 15 16 19 18 18 17 16 16 16 17 18 18 18 16 15 15 15 15 15 16 16 19 21 19 19 17 18 16 16 15 14 13 12 13 13 13 13
15 15 15 16 16 15 15 16 16 16 17 18 18 17 16 16 15 14 14 15 15 15 15 15 17 18 19 17 16 17 16 15 15 14 13 15 14 14
14 15 16 17 17 17 16 16 16 16 16 17 17 17 16 16 15 14 14 15 16 16 15 14 13 13 14 15 17 18 17 16 15 14 15 15 16 15
14 15 16 16 16 16 16 16 16 16 15 15 15 16 15 16 15 14 15 15 16 16 15 14 14 14 15 16 16 20 18 16 15 15 14 15 16 15
13 14 15 15 15 15 15 15 15 15 14 14 14 15 15 15 15 15 16 16 16 16 15 14 15 15 17 17 14 12 19 18 15 15 14 14 14 14
14 14 14 14 14 14 14 14 14 13 14 13 13 14 14 14 14 15 16 15 15 15 16 16 15 15 14 12 14 15 14 18 17 14 14 13 14 13
14 14 14 14 14 13 13 13 13 12 12 12 12 13 13 14 15 16 15 14 14 15 16 14 13 12 13 15 16 17 16 14 17 20 19 17 15 14
14 14 13 13 13 12 11 11 12 11 11 11 10 11 12 12 13 13 14 14 13 14 14 13 12 11 13 14 15 15 18 17 14 13 15 19 22 21
Wind_Direction
236 223 247 256 254 265 268 274 285 290 283 227 245 235 256 280 303 290 288 295 306 295 286 280 271 263 257 251 248 248 246 245 245 245 244 241 238 235
250 261 256 262 254 256 259 260 263 274 282 285 263 268 288 294 266 278 277 272 262 256 264 275 275 270 264 258 254 251 249 248 247 247 246 245 243 241
237 238 240 257 259 258 252 254 256 259 267 274 273 264 262 273 282 280 275 271 262 224 236 263 271 269 265 262 258 254 251 250 249 249 249 247 246 244
238 240 242 239 239 253 258 255 255 257 262 271 276 272 257 258 264 269 271 267 269 237 230 254 263 264 261 259 258 256 255 254 252 251 251 251 250 248
238 239 240 242 242 243 244 252 253 249 249 261 267 268 267 261 263 262 262 261 267 259 236 238 244 250 254 254 253 253 254 254 254 253 253 252 252 251
239 240 240 239 239 241 242 245 251 256 254 256 264 264 260 256 255 263 264 251 252 263 264 257 242 238 245 246 245 246 249 252 254 255 255 254 254 254
241 241 241 239 241 241 246 245 243 246 252 254 259 262 260 258 257 259 264 267 259 257 262 260 250 245 239 234 235 238 241 248 254 256 256 256 256 255
246 245 244 235 232 229 239 248 252 249 251 256 259 260 262 261 260 264 268 267 266 257 253 260 261 260 258 256 239 217 230 248 257 259 258 257 256 255
250 248 249 246 232 237 230 229 239 243 247 251 257 260 262 257 259 259 255 261 267 273 267 265 263 262 260 259 235 231 244 254 259 259 258 257 256 256
252 249 248 252 246 240 242 239 238 236 233 236 245 252 255 260 257 256 265 264 261 256 254 261 264 264 263 261 239 228 239 249 255 257 256 255 253 253
254 252 249 250 245 233 242 247 249 248 240 232 235 243 250 254 252 253 252 252 256 254 240 245 257 263 264 263 253 228 231 240 246 250 251 250 249 250
259 256 251 248 249 229 238 245 249 250 251 242 229 236 243 242 232 236 245 249 254 257 249 242 252 260 266 262 257 246 233 231 232 238 240 241 240 243
270 266 262 242 239 236 235 245 250 254 255 252 248 240 236 234 231 225 230 239 247 251 250 239 249 255 259 266 268 262 260 260 245 238 232 230 227 227
278 277 278 276 255 244 241 245 248 251 253 253 250 246 242 237 232 229 224 228 238 248 257 256 254 256 262 266 267 265 259 257 258 259 256 228 220 224
279 280 283 285 278 263 246 239 240 245 245 245 245 245 244 241 238 232 231 230 235 242 246 244 247 252 254 259 265 266 266 261 254 255 255 252 245 234
285 285 276 266 259 257 260 248 242 241 239 242 244 245 245 241 236 235 233 230 233 237 235 236 239 245 249 252 257 260 261 262 259 256 255 254 251 247
307 295 284 277 270 262 257 251 246 240 237 240 243 243 243 241 238 233 233 235 237 241 241 232 229 231 239 249 253 253 255 256 256 256 256 258 255 250
288 282 278 275 273 271 266 260 251 245 241 238 238 238 238 239 238 236 234 235 239 241 242 242 233 230 233 238 236 251 255 255 255 250 250 254 256 252
274 275 275 275 274 272 270 266 262 256 248 243 240 237 236 238 237 236 234 236 238 240 241 240 238 235 237 244 237 218 238 250 252 251 247 248 253 255
282 282 282 280 278 276 275 273 269 264 256 248 242 238 235 235 236 237 236 236 237 239 240 239 237 235 239 248 258 245 214 235 247 250 252 251 252 253
298 294 290 287 283 280 279 277 274 269 262 252 245 239 236 235 236 237 238 235 237 240 240 240 239 237 244 252 256 255 242 220 234 247 254 258 257 254
302 298 294 289 286 281 278 276 273 268 265 257 247 241 238 237 237 236 235 234 233 236 242 245 242 235 235 239 244 251 254 246 226 232 245 254 257 257
305 303 297 294 291 285 278 275 274 270 264 258 251 246 241 237 235 234 234 236 237 239 243 244 243 238 237 238 244 250 255 256 252 242 239 229 232 245
Height
1563 1562 1562 1563 1562 1563 1563 1563 1563 1561 1559 1559 1559 1559 1557 1557 1555 1555 1555 1554 1554 1555 1555 1555 1556 1556 1557 1558 1558 1559 1560 1561 1562 1564 1565 1567 1569 1571
1560 1560 1560 1561 1561 1560 1560 1559 1559 1559 1558 1557 1556 1556 1554 1553 1552 1550 1550 1549 1549 1550 1550 1550 1551 1551 1552 1552 1553 1553 1554 1555 1556 1557 1558 1560 1561 1563
1557 1557 1556 1556 1557 1557 1557 1556 1556 1555 1554 1553 1553 1552 1549 1547 1547 1546 1545 1545 1545 1544 1544 1544 1545 1545 1546 1546 1547 1547 1548 1548 1549 1550 1551 1552 1553 1555
1554 1553 1553 1553 1552 1552 1552 1552 1552 1551 1550 1549 1548 1547 1545 1543 1542 1540 1541 1541 1540 1539 1538 1538 1538 1538 1539 1540 1540 1541 1541 1542 1542 1543 1544 1545 1546 1547
1549 1549 1548 1548 1547 1548 1547 1547 1547 1546 1545 1544 1543 1542 1541 1540 1538 1536 1536 1534 1534 1534 1532 1531 1531 1531 1532 1532 1533 1533 1534 1535 1536 1536 1536 1537 1538 1539
1544 1543 1543 1543 1542 1542 1542 1541 1541 1541 1540 1539 1538 1537 1536 1535 1533 1532 1531 1530 1529 1529 1528 1527 1525 1524 1524 1525 1525 1526 1527 1527 1528 1528 1529 1529 1530 1530
1538 1538 1537 1537 1536 1536 1536 1536 1536 1535 1535 1534 1533 1532 1531 1530 1529 1528 1527 1525 1524 1523 1522 1521 1521 1519 1519 1518 1518 1518 1519 1519 1520 1520 1520 1521 1521 1522
1532 1531 1531 1530 1529 1529 1528 1528 1529 1528 1528 1528 1527 1526 1525 1524 1523 1522 1522 1520 1519 1519 1517 1516 1515 1514 1513 1513 1512 1511 1511 1511 1511 1512 1512 1512 1513 1513
1524 1524 1523 1524 1522 1521 1520 1520 1519 1519 1519 1519 1518 1518 1518 1518 1517 1516 1515 1514 1513 1513 1512 1510 1509 1508 1507 1506 1505 1504 1503 1503 1503 1504 1504 1504 1505 1505
1516 1515 1514 1514 1514 1514 1513 1512 1510 1510 1509 1509 1508 1508 1509 1509 1509 1509 1508 1507 1505 1504 1504 1503 1502 1501 1500 1499 1498 1496 1495 1495 1495 1495 1495 1496 1496 1497
1506 1506 1505 1504 1504 1504 1504 1502 1502 1501 1501 1500 1499 1499 1499 1500 1501 1501 1501 1500 1499 1498 1498 1496 1495 1494 1493 1492 1491 1489 1487 1487 1486 1486 1487 1488 1488 1488
1497 1496 1495 1495 1494 1494 1493 1492 1491 1492 1493 1492 1490 1489 1489 1489 1490 1490 1491 1492 1491 1490 1490 1490 1489 1488 1487 1485 1484 1483 1481 1479 1479 1478 1478 1479 1480 1480
1487 1486 1486 1485 1484 1484 1483 1482 1481 1482 1482 1482 1482 1480 1479 1479 1479 1479 1479 1481 1482 1482 1483 1483 1482 1482 1481 1479 1478 1477 1476 1475 1474 1472 1471 1471 1471 1471
1477 1477 1476 1474 1473 1472 1471 1470 1471 1471 1471 1471 1471 1470 1470 1470 1470 1470 1470 1470 1471 1472 1474 1475 1474 1474 1474 1472 1471 1470 1469 1468 1467 1466 1466 1465 1463 1463
1468 1466 1464 1463 1461 1460 1459 1458 1459 1459 1458 1458 1458 1459 1460 1460 1461 1461 1461 1461 1461 1461 1463 1464 1464 1465 1465 1464 1463 1462 1462 1461 1460 1459 1458 1458 1457 1456
1460 1456 1453 1451 1449 1447 1446 1446 1445 1445 1445 1445 1446 1447 1449 1450 1450 1451 1452 1452 1452 1452 1452 1453 1453 1455 1455 1455 1455 1453 1453 1452 1452 1452 1451 1450 1450 1449
1450 1445 1443 1441 1439 1437 1435 1434 1434 1433 1432 1433 1434 1435 1436 1438 1439 1440 1441 1442 1442 1442 1443 1444 1444 1444 1444 1445 1445 1444 1444 1444 1444 1443 1443 1442 1441 1441
1441 1436 1433 1431 1429 1427 1425 1423 1422 1421 1420 1421 1421 1422 1424 1425 1427 1428 1430 1431 1432 1432 1434 1435 1436 1436 1435 1434 1434 1434 1435 1435 1435 1435 1434 1434 1433 1433
1432 1428 1424 1421 1419 1416 1414 1412 1411 1410 1410 1410 1410 1411 1412 1414 1415 1417 1419 1420 1421 1422 1424 1425 1426 1427 1426 1425 1424 1425 1425 1426 1426 1426 1426 1426 1425 1425
1424 1420 1415 1412 1409 1407 1404 1402 1400 1399 1399 1399 1399 1400 1401 1403 1404 1406 1408 1410 1411 1412 1414 1415 1416 1416 1417 1417 1417 1417 1417 1417 1418 1418 1418 1418 1417 1417
1416 1411 1407 1404 1400 1397 1395 1393 1391 1389 1389 1388 1389 1389 1391 1393 1394 1396 1398 1399 1401 1402 1403 1404 1405 1407 1408 1409 1409 1408 1409 1408 1409 1410 1410 1411 1410 1410
1408 1404 1399 1395 1392 1388 1385 1384 1382 1381 1380 1379 1379 1380 1382 1383 1385 1386 1388 1390 1391 1392 1394 1395 1397 1398 1399 1399 1399 1399 1400 1401 1400 1400 1401 1402 1402 1402
1401 1396 1392 1388 1384 1381 1378 1376 1374 1373 1372 1371 1371 1372 1373 1374 1375 1377 1379 1381 1383 1384 1385 1386 1388 1389 1390 1391 1391 1391 1392 1392 1393 1392 1391 1391 1392 1393